• In Deutschland
  • Länderverzeichnis
  • Für 7 Tage
  • Wassertemperatur
  • Satellitenkarten
  • Wetterkarte
  • Widgets
  • user-avatar
    Anmelden

    Stündliche Wetter Abowian

    Heute, 11 Dezember, Montag

    Zeit Temperatur Niederschläge Wind Luftdruck Luftfeuchtigkeit
    00:00 -2°C° 0 mm 2 m/S 674 mmHg 60%
    01:00 -2°C° 0 mm 2 m/S 674 mmHg 60%
    02:00 -2°C° 0 mm 2 m/S 674 mmHg 60%
    03:00 -3°C° 0 mm 2 m/S 674 mmHg 62%
    04:00 -3°C° 0 mm 2 m/S 674 mmHg 62%
    05:00 -3°C° 0 mm 2 m/S 674 mmHg 62%
    06:00 -3°C° 0 mm 2 m/S 674 mmHg 62%
    07:00 0°C° 0 mm 1 m/S 674 mmHg 60%
    08:00 +1°C° 0 mm 1 m/S 674 mmHg 59%
    09:00 +1°C° 0 mm 2 m/S 674 mmHg 58%
    10:00 +4°C° 0 mm 1 m/S 674 mmHg 56%
    11:00 +5°C° 0 mm 1 m/S 674 mmHg 54%
    12:00 +6°C° 0 mm 1 m/S 674 mmHg 52%
    13:00 +6°C° 0 mm 1 m/S 674 mmHg 53%
    14:00 +6°C° 0 mm 1 m/S 674 mmHg 54%
    15:00 +6°C° 0 mm 1 m/S 674 mmHg 55%
    16:00 +4°C° 0 mm 2 m/S 675 mmHg 56%
    17:00 +2°C° 0 mm 2 m/S 675 mmHg 57%
    18:00 +1°C° 0 mm 2 m/S 676 mmHg 58%
    19:00 +1°C° 0 mm 2 m/S 676 mmHg 59%
    20:00 +1°C° 0 mm 2 m/S 676 mmHg 59%
    21:00 -1°C° 0 mm 2 m/S 676 mmHg 59%
    22:00 -1°C° 0 mm 2 m/S 677 mmHg 59%
    23:00 -1°C° 0 mm 2 m/S 677 mmHg 59%

    Morgen, 12 Dezember, Dienstag

    Zeit Temperatur Niederschläge Wind Luftdruck Luftfeuchtigkeit
    00:00 +1°C° 0 mm 1 m/S 677 mmHg 59%
    01:00 +1°C° 0 mm 1 m/S 677 mmHg 59%
    02:00 +1°C° 0 mm 1 m/S 677 mmHg 59%
    03:00 +1°C° 0 mm 1 m/S 677 mmHg 59%
    04:00 +1°C° 0 mm 1 m/S 677 mmHg 59%
    05:00 +1°C° 0 mm 1 m/S 677 mmHg 59%
    06:00 +1°C° 0 mm 1 m/S 677 mmHg 59%
    07:00 +2°C° 0 mm 1 m/S 677 mmHg 57%
    08:00 +3°C° 0 mm 1 m/S 677 mmHg 56%
    09:00 +4°C° 0 mm 1 m/S 678 mmHg 55%
    10:00 +6°C° 0 mm 1 m/S 677 mmHg 53%
    11:00 +7°C° 0 mm 1 m/S 677 mmHg 52%
    12:00 +8°C° 0 mm 1 m/S 677 mmHg 51%
    13:00 +8°C° 0 mm 1 m/S 676 mmHg 51%
    14:00 +9°C° 0 mm 1 m/S 676 mmHg 51%
    15:00 +9°C° 0 mm 1 m/S 676 mmHg 51%
    16:00 +7°C° 0 mm 1 m/S 676 mmHg 51%
    17:00 +6°C° 0 mm 1 m/S 676 mmHg 51%
    18:00 +5°C° 0 mm 1 m/S 676 mmHg 51%
    19:00 +5°C° 0 mm 1 m/S 676 mmHg 51%
    20:00 +4°C° 0 mm 1 m/S 676 mmHg 50%
    21:00 +4°C° 0 mm 1 m/S 676 mmHg 50%
    22:00 +4°C° 0 mm 1 m/S 676 mmHg 50%
    23:00 +4°C° 0 mm 1 m/S 676 mmHg 50%

    übermorgen, 13 Dezember, Mittwoch

    Zeit Temperatur Niederschläge Wind Luftdruck Luftfeuchtigkeit
    00:00 +3°C° 0 mm 1 m/S 676 mmHg 50%
    01:00 +3°C° 0 mm 1 m/S 676 mmHg 49%
    02:00 +3°C° 0 mm 1 m/S 675 mmHg 49%
    03:00 +3°C° 0 mm 1 m/S 675 mmHg 49%
    04:00 +3°C° 0 mm 1 m/S 675 mmHg 49%
    05:00 +3°C° 0 mm 1 m/S 675 mmHg 50%
    06:00 +3°C° 0 mm 1 m/S 675 mmHg 50%
    07:00 +4°C° 0 mm 1 m/S 675 mmHg 49%
    08:00 +5°C° 0 mm 1 m/S 675 mmHg 47%
    09:00 +6°C° 0 mm 1 m/S 675 mmHg 46%
    10:00 +7°C° 0 mm 1 m/S 675 mmHg 45%
    11:00 +8°C° 0 mm 1 m/S 675 mmHg 45%
    12:00 +9°C° 0 mm 1 m/S 675 mmHg 44%
    13:00 +9°C° 0 mm 1 m/S 674 mmHg 44%
    14:00 +9°C° 0 mm 1 m/S 674 mmHg 45%
    15:00 +9°C° 0 mm 1 m/S 674 mmHg 45%
    16:00 +8°C° 0 mm 1 m/S 673 mmHg 47%
    17:00 +6°C° 0 mm 1 m/S 673 mmHg 49%
    18:00 +5°C° 0 mm 1 m/S 673 mmHg 51%
    19:00 +4°C° 0 mm 1 m/S 673 mmHg 52%
    20:00 +4°C° 0 mm 1 m/S 673 mmHg 52%
    21:00 +4°C° 0 mm 1 m/S 673 mmHg 53%
    22:00 +4°C° 0 mm 1 m/S 673 mmHg 54%
    23:00 +3°C° 0 mm 1 m/S 673 mmHg 54%

    14 Dezember, Donnerstag

    Zeit Temperatur Niederschläge Wind Luftdruck Luftfeuchtigkeit
    00:00 +3°C° 0 mm 1 m/S 673 mmHg 55%
    01:00 +3°C° 0 mm 1 m/S 673 mmHg 55%
    02:00 +3°C° 0 mm 1 m/S 673 mmHg 56%
    03:00 +3°C° 0 mm 1 m/S 673 mmHg 56%
    04:00 +2°C° 0 mm 1 m/S 673 mmHg 57%
    05:00 +2°C° 0 mm 1 m/S 673 mmHg 58%
    06:00 +2°C° 0 mm 1 m/S 672 mmHg 60%
    07:00 +3°C° 0 mm 1 m/S 673 mmHg 57%
    08:00 +4°C° 0 mm 1 m/S 673 mmHg 54%
    09:00 +5°C° 0 mm 1 m/S 674 mmHg 50%
    10:00 +6°C° 0 mm 1 m/S 673 mmHg 48%
    11:00 +7°C° 0 mm 1 m/S 673 mmHg 46%
    12:00 +8°C° 0 mm 1 m/S 673 mmHg 44%
    13:00 +8°C° 0 mm 1 m/S 672 mmHg 44%
    14:00 +8°C° 0 mm 1 m/S 672 mmHg 44%
    15:00 +8°C° 0 mm 1 m/S 672 mmHg 44%
    16:00 +7°C° 0 mm 1 m/S 672 mmHg 46%
    17:00 +5°C° 0 mm 1 m/S 672 mmHg 48%
    18:00 +4°C° 0 mm 1 m/S 672 mmHg 49%
    19:00 +4°C° 0 mm 1 m/S 672 mmHg 49%
    20:00 +3°C° 0 mm 1 m/S 672 mmHg 49%
    21:00 +3°C° 0 mm 1 m/S 672 mmHg 48%
    22:00 +3°C° 0 mm 1 m/S 672 mmHg 49%
    23:00 +3°C° 0 mm 1 m/S 672 mmHg 49%

    15 Dezember, Freitag

    Zeit Temperatur Niederschläge Wind Luftdruck Luftfeuchtigkeit
    00:00 +2°C° 0 mm 1 m/S 672 mmHg 49%
    01:00 +2°C° 0 mm 1 m/S 672 mmHg 49%
    02:00 +2°C° 0 mm 1 m/S 671 mmHg 50%
    03:00 +2°C° 0 mm 1 m/S 671 mmHg 50%
    04:00 +2°C° 0 mm 1 m/S 671 mmHg 51%
    05:00 +1°C° 0 mm 1 m/S 671 mmHg 52%
    06:00 +1°C° 0 mm 1 m/S 671 mmHg 52%
    07:00 +2°C° 0 mm 1 m/S 672 mmHg 51%
    08:00 +3°C° 0 mm 1 m/S 672 mmHg 50%
    09:00 +4°C° 0 mm 1 m/S 672 mmHg 49%
    10:00 +5°C° 0 mm 1 m/S 672 mmHg 47%
    11:00 +6°C° 0 mm 1 m/S 672 mmHg 45%
    12:00 +8°C° 0 mm 1 m/S 672 mmHg 43%
    13:00 +8°C° 0 mm 1 m/S 672 mmHg 42%
    14:00 +8°C° 0 mm 1 m/S 672 mmHg 42%
    15:00 +8°C° 0 mm 1 m/S 672 mmHg 41%
    16:00 +6°C° 0 mm 1 m/S 672 mmHg 43%
    17:00 +5°C° 0 mm 1 m/S 672 mmHg 44%
    18:00 +4°C° 0 mm 1 m/S 672 mmHg 45%
    19:00 +3°C° 0 mm 1 m/S 672 mmHg 44%
    20:00 +3°C° 0 mm 1 m/S 673 mmHg 44%
    21:00 +3°C° 0 mm 1 m/S 673 mmHg 43%
    22:00 +3°C° 0 mm 1 m/S 673 mmHg 42%
    23:00 +2°C° 0 mm 1 m/S 673 mmHg 42%

    16 Dezember, Samstag

    Zeit Temperatur Niederschläge Wind Luftdruck Luftfeuchtigkeit
    00:00 +2°C° 0 mm 1 m/S 673 mmHg 41%
    01:00 +2°C° 0 mm 1 m/S 673 mmHg 41%
    02:00 +2°C° 0 mm 1 m/S 673 mmHg 40%
    03:00 +2°C° 0 mm 1 m/S 673 mmHg 40%
    04:00 +1°C° 0 mm 1 m/S 673 mmHg 40%
    05:00 +1°C° 0 mm 1 m/S 673 mmHg 40%
    06:00 +1°C° 0 mm 1 m/S 673 mmHg 40%
    07:00 +2°C° 0 mm 1 m/S 674 mmHg 39%
    08:00 +3°C° 0 mm 1 m/S 674 mmHg 39%
    09:00 +4°C° 0 mm 1 m/S 675 mmHg 38%
    10:00 +5°C° 0 mm 1 m/S 674 mmHg 37%
    11:00 +6°C° 0 mm 1 m/S 674 mmHg 37%
    12:00 +8°C° 0 mm 1 m/S 674 mmHg 36%
    13:00 +7°C° 0 mm 1 m/S 674 mmHg 36%
    14:00 +7°C° 0 mm 1 m/S 674 mmHg 37%
    15:00 +7°C° 0 mm 1 m/S 674 mmHg 38%
    16:00 +6°C° 0 mm 1 m/S 674 mmHg 39%
    17:00 +5°C° 0 mm 1 m/S 674 mmHg 41%
    18:00 +3°C° 0 mm 1 m/S 674 mmHg 43%
    19:00 +3°C° 0 mm 1 m/S 674 mmHg 43%
    20:00 +3°C° 0 mm 1 m/S 674 mmHg 43%
    21:00 +3°C° 0 mm 1 m/S 675 mmHg 43%
    22:00 +2°C° 0 mm 1 m/S 675 mmHg 44%
    23:00 +2°C° 0 mm 1 m/S 675 mmHg 44%
    Mehr zeigen